Location: Kermapucano
(48.0667°N, 3.3000°W)
Time: 19:51:11
(UTC+00:00)

ATLAS 2AS CENTAUR R/B - Pass Details

Date: 29 November 2020
Orbit: 943 x 1268 km, 63.7° (Epoch: 26 January)

Event Time Altitude Azimuth Distance (km) Brightness Sun altitude
Exits shadow 04:15:37 24° 181° (S) 2,338 4.4 -33.4°
Maximum altitude 04:20:14 51° 119° (ESE) 1,565 3.7 -32.6°
Drops below altitude 10° 04:27:44 10° 47° (NE) 3,228 5.7 -31.4°
Sets 04:30:34 0° 42° (NE) 4,171 6.4 -30.9°
